This is the latest recevied weather packets stored in our database for station/object N4QD-13. If no packets are shown the sender has not sent any weather packets the latest 10 day(s).
| Time | Temp. | Humidity | Pressure | Rain* | Wind** | Luminosity | Snow |
|---|---|---|---|---|---|---|---|
| 1777229891 | 11.67° C | 84% | 1020.5 hPa | 0 mm | - | 242 W/m² | - |
| 1777229588 | 12.22° C | 84% | 1020.4 hPa | 0 mm | - | 200 W/m² | - |
| 1777229284 | 12.22° C | 84% | 1020.5 hPa | 0 mm | - | 205 W/m² | - |
| 1777228981 | 12.22° C | 84% | 1020.4 hPa | 0 mm | - | 233 W/m² | - |
| 1777228677 | 12.22° C | 85% | 1020.3 hPa | 0 mm | - | 230 W/m² | - |
| 1777228373 | 11.67° C | 84% | 1020.5 hPa | 0 mm | - | 223 W/m² | - |
| 1777228069 | 11.67° C | 85% | 1020.4 hPa | 0 mm | - | 251 W/m² | - |
| 1777227768 | 11.67° C | 84% | 1020.5 hPa | 0 mm | - | 275 W/m² | - |
| 1777227464 | 11.67° C | 85% | 1020.3 hPa | 0 mm | - | 266 W/m² | - |
| 1777227160 | 12.22° C | 84% | 1020.5 hPa | 0 mm | - | 444 W/m² | - |
| 1777226858 | 11.67° C | 85% | 1020.3 hPa | 0 mm | - | 408 W/m² | - |
| 1777226556 | 11.67° C | 84% | 1020.5 hPa | 0 mm | - | 419 W/m² | - |
| 1777226252 | 11.67° C | 85% | 1020.4 hPa | 0 mm | - | 408 W/m² | - |
| 1777225948 | 11.11° C | 85% | 1020.5 hPa | 0 mm | - | 317 W/m² | - |
| 1777225644 | 11.11° C | 86% | 1020.3 hPa | 0 mm | - | 270 W/m² | - |
| 1777225342 | 11.11° C | 86% | 1020.4 hPa | 0 mm | - | 232 W/m² | - |
| 1777225038 | 11.67° C | 86% | 1020.4 hPa | 0 mm | - | 227 W/m² | - |
| 1777224736 | 11.11° C | 86% | 1020.4 hPa | 0 mm | - | 233 W/m² | - |
| 1777224436 | 11.67° C | 85% | 1020.4 hPa | 0 mm | - | 207 W/m² | - |
| 1777224132 | 11.67° C | 85% | 1020.4 hPa | 0 mm | - | 219 W/m² | - |
| 1777223829 | 11.67° C | 85% | 1020.3 hPa | 0 mm | - | 237 W/m² | - |
| 1777223525 | 11.67° C | 86% | 1020.3 hPa | 0 mm | - | 244 W/m² | - |
| 1777223223 | 11.67° C | 85% | 1020.4 hPa | 0 mm | - | 386 W/m² | - |
| 1777222920 | 12.22° C | 83% | 1020.4 hPa | 0 mm | - | 458 W/m² | - |
| 1777222617 | 11.11° C | 87% | 1020.5 hPa | 0 mm | - | 449 W/m² | - |
* Rain latest hour (hover to see other rain measurements)
** Current wind speed in m/s (hover to see current wind gust speed)